FW6665 Weather Reports


time (UTC)temp
C
wind
direction
speed
KPH
gust
KPH
rain 1hr
cm
rain 24hr
cm
rain mn
cm
humidity
%
barometer
mb
20260504215205 13 298 0.0 3.2 0.00 0.00 0.00 83 1012.1
20260504214705 13 298 0.0 3.2 0.00 0.00 0.00 83 1012.1
20260504214204 13 298 0.0 1.6 0.00 0.00 0.00 83 1012.1
20260504213704 13 299 0.0 1.6 0.00 0.00 0.00 83 1012.1
20260504212204 13 299 0.0 0.0 0.00 0.00 0.00 83 1012.1
20260504211704 13 299 0.0 1.6 0.00 0.00 0.00 83 1012.1
20260504211204 13 299 0.0 1.6 0.00 0.00 0.00 83 1012.1
20260504210704 13 299 0.0 1.6 0.00 0.00 0.00 83 1012.1
20260504210204 13 299 0.0 1.6 0.00 0.00 0.00 83 1012.2
20260504205704 13 299 0.0 1.6 0.00 0.00 0.00 83 1012.1
20260504205204 13 299 0.0 1.6 0.00 0.00 0.00 83 1012.1
20260504204704 13 299 0.0 1.6 0.00 0.00 0.00 83 1012.1
20260504204204 13 299 0.0 0.0 0.00 0.00 0.00 83 1012.1
20260504203704 13 299 0.0 1.6 0.00 0.00 0.00 83 1012.1
20260504203206 13 299 0.0 1.6 0.00 0.00 0.00 83 1012.2
20260504202704 13 299 0.0 1.6 0.00 0.00 0.00 83 1012.1
20260504202204 13 299 0.0 1.6 0.00 0.00 0.00 83 1012.2
20260504201704 13 299 0.0 1.6 0.00 0.00 0.00 83 1012.2
20260504201205 13 299 0.0 1.6 0.00 0.00 0.00 83 1012.2
20260504200204 13 299 0.0 1.6 0.00 0.00 0.00 83 1012.1
20260504195705 13 299 0.0 1.6 0.00 0.00 0.00 83 1012.1
20260504195204 13 299 0.0 1.6 0.00 0.00 0.00 82 1012.1
20260504194706 13 299 0.0 1.6 0.00 0.00 0.00 82 1012.0
20260504194205 13 299 0.0 1.6 0.00 0.00 0.00 82 1011.9
20260504193704 13 299 0.0 1.6 0.00 0.00 0.00 82 1011.8
20260504193204 14 299 0.0 3.2 0.00 0.00 0.00 82 1011.8
20260504192705 14 299 0.0 3.2 0.00 0.00 0.00 82 1011.8
20260504192204 14 299 0.0 1.6 0.00 0.00 0.00 81 1011.8
20260504191205 14 299 0.0 3.2 0.00 0.00 0.00 81 1011.7
20260504190204 15 300 0.0 3.2 0.00 0.00 0.00 79 1011.6
20260504185705 15 299 0.0 1.6 0.00 0.00 0.00 79 1011.5
20260504185204 15 299 0.0 3.2 0.00 0.00 0.00 78 1011.5
20260504184705 15 299 0.0 3.2 0.00 0.00 0.00 78 1011.5
20260504184204 15 299 0.0 3.2 0.00 0.00 0.00 78 1011.5
20260504183705 15 299 0.0 3.2 0.00 0.00 0.00 77 1011.5
20260504183208 15 299 0.0 3.2 0.00 0.00 0.00 76 1011.5
20260504182704 15 299 0.0 1.6 0.00 0.00 0.00 76 1011.4
20260504182204 15 299 0.0 4.8 0.00 0.00 0.00 76 1011.4
20260504181704 16 299 0.0 4.8 0.00 0.00 0.00 76 1011.3
20260504181204 16 299 0.0 4.8 0.00 0.00 0.00 76 1011.3
20260504180704 16 298 1.6 4.8 0.00 0.00 0.00 77 1011.3
20260504180203 16 296 1.6 3.2 0.00 0.00 0.00 77 1011.4
20260504175704 15 296 0.0 3.2 0.00 0.00 0.00 78 1011.4
20260504175204 15 296 0.0 3.2 0.00 0.00 0.00 78 1011.4
20260504174704 15 296 1.6 6.4 0.00 0.00 0.00 78 1011.4
20260504173704 15 296 0.0 6.4 0.00 0.00 0.00 77 1011.5
20260504173204 15 302 1.6 6.4 0.00 0.00 0.00 78 1011.4
20260504172704 15 302 1.6 6.4 0.00 0.00 0.00 78 1011.4
20260504172204 15 300 1.6 6.4 0.00 0.00 0.00 78 1011.5
20260504171703 15 299 1.6 4.8 0.00 0.00 0.00 77 1011.5
20260504171205 15 292 0.0 6.4 0.00 0.00 0.00 78 1011.5
20260504170705 15 290 0.0 6.4 0.00 0.00 0.00 77 1011.6
20260504170205 15 290 1.6 4.8 0.00 0.00 0.00 78 1011.6
20260504160204 16 237 0.0 3.2 0.00 0.00 0.00 78 1011.6
20260504150705 15 237 0.0 3.2 0.00 0.00 0.00 79 1011.7
20260504150205 15 237 0.0 3.2 0.00 0.00 0.00 79 1011.7
20260504141205 15 238 1.6 1.6 0.00 0.00 0.00 77 1011.8
20260504140204 15 238 0.0 1.6 0.00 0.00 0.00 78 1011.8
20260504130704 15 250 0.0 3.2 0.00 0.00 0.00 78 1011.9
20260504130204 15 250 0.0 3.2 0.00 0.00 0.00 78 1011.9
20260504120204 15 250 0.0 3.2 0.00 0.00 0.00 81 1011.9
20260504110704 14 250 0.0 3.2 0.00 0.00 0.00 82 1012.1
20260504110204 13 250 0.0 3.2 0.00 0.00 0.00 82 1012.1
20260504100204 13 248 0.0 1.6 0.00 0.00 0.00 82 1012.0
20260504081707 12 245 1.6 4.8 0.00 0.00 0.00 83 1011.6
20260504081204 12 245 1.6 4.8 0.00 0.00 0.00 83 1011.6
20260504080704 12 245 1.6 3.2 0.00 0.00 0.00 83 1011.7
20260504080212 12 245 0.0 3.2 0.00 0.00 0.00 83 1011.6
20260504070205 12 243 1.6 4.8 0.00 0.00 0.00 82 1010.8
20260504060205 13 244 0.0 1.6 0.00 0.00 0.00 82 1010.2
20260504050714 13 227 0.0 3.2 0.00 0.00 0.00 82 1009.7
20260504050204 13 227 0.0 3.2 0.00 0.00 0.00 82 1009.6
20260504045704 13 227 0.0 3.2 0.00 0.00 0.00 82 1009.6
20260504045204 12 227 0.0 3.2 0.00 0.00 0.00 82 1009.4
20260504044705 12 227 0.0 3.2 0.00 0.00 0.00 82 1009.4
20260504044204 12 227 0.0 3.2 0.00 0.00 0.00 82 1009.5
20260504043704 12 227 0.0 3.2 0.00 0.00 0.00 83 1009.4
20260504043204 12 227 0.0 3.2 0.00 0.00 0.00 83 1009.4
20260504042705 12 227 0.0 3.2 0.00 0.00 0.00 83 1009.4
20260504042205 12 227 0.0 1.6 0.00 0.00 0.00 83 1009.4
20260504040704 12 216 0.0 1.6 0.00 0.00 0.00 83 1009.4
20260504040204 12 216 0.0 1.6 0.00 0.00 0.00 83 1009.4
20260504035704 12 216 0.0 3.2 0.00 0.00 0.00 83 1009.4
20260504035204 12 216 0.0 3.2 0.00 0.00 0.00 83 1009.4
20260504034704 12 216 0.0 3.2 0.00 0.00 0.00 83 1009.4
20260504034205 12 216 1.6 3.2 0.00 0.00 0.00 83 1009.5
20260504033704 12 216 0.0 3.2 0.00 0.00 0.00 83 1009.5
20260504033204 13 216 0.0 4.8 0.00 0.00 0.00 83 1009.6
20260504032704 13 216 0.0 4.8 0.00 0.00 0.00 83 1009.5
20260504031704 13 216 0.0 1.6 0.00 0.00 0.00 83 1009.5
20260504031204 13 216 0.0 1.6 0.00 0.00 0.00 83 1009.4
20260504030704 13 216 0.0 3.2 0.00 0.00 0.00 83 1009.4
20260504030204 13 216 0.0 3.2 0.00 0.00 0.00 83 1009.3
20260504025704 13 216 0.0 3.2 0.00 0.00 0.00 83 1009.3
20260504025205 13 216 0.0 4.8 0.00 0.00 0.00 83 1009.3
20260504024704 13 216 0.0 4.8 0.00 0.00 0.00 83 1009.2
20260504024204 13 216 0.0 4.8 0.00 0.00 0.00 83 1009.2
20260504023704 13 216 0.0 4.8 0.00 0.00 0.00 83 1009.2
20260504023205 13 217 1.6 4.8 0.00 0.00 0.00 83 1009.2
20260504022204 13 217 1.6 1.6 0.00 0.00 0.00 83 1009.1
20260504021704 13 217 0.0 1.6 0.00 0.00 0.00 83 1009.1
20260504021204 13 217 0.0 1.6 0.00 0.00 0.00 83 1009.1
20260504020705 13 217 0.0 1.6 0.00 0.00 0.00 83 1009.1
20260504015704 13 217 0.0 1.6 0.00 0.00 0.00 83 1009.2
20260504015205 13 217 0.0 3.2 0.00 0.00 0.00 83 1009.1
20260504014704 13 217 0.0 4.8 0.00 0.00 0.00 83 1009.1
20260504014205 13 217 0.0 6.4 0.00 0.00 0.00 83 1009.1
20260504013704 13 219 0.0 6.4 0.00 0.00 0.00 83 1009.1
20260504013204 13 219 0.0 6.4 0.00 0.00 0.00 83 1009.1
20260504012705 13 217 1.6 6.4 0.00 0.00 0.00 83 1009.1
20260504012205 13 217 1.6 6.4 0.00 0.00 0.00 83 1009.1
20260504011705 13 217 1.6 4.8 0.00 0.00 0.00 83 1009.1
20260504011205 13 216 1.6 4.8 0.00 0.00 0.00 83 1009.3
20260504010704 13 216 1.6 6.4 0.00 0.00 0.00 83 1009.2
20260504010204 13 216 1.6 8.0 0.00 0.00 0.00 82 1009.2
20260504005704 13 216 1.6 9.7 0.00 0.00 0.00 82 1009.1
20260504005204 13 228 1.6 9.7 0.00 0.00 0.00 82 1009.1
20260504004706 13 233 1.6 9.7 0.00 0.00 0.00 82 1009.0
20260504004207 13 217 3.2 6.4 0.00 0.00 0.00 82 1009.1
20260504003704 13 216 0.0 6.4 0.00 0.00 0.00 82 1009.0
20260504003204 13 216 1.6 6.4 0.00 0.00 0.00 82 1008.9
20260504002704 13 216 1.6 4.8 0.00 0.00 0.00 82 1008.7
20260504002205 13 216 1.6 6.4 0.00 0.00 0.00 82 1008.7
20260504001704 13 216 1.6 6.4 0.00 0.00 0.00 82 1008.8
20260504001204 13 214 1.6 4.8 0.00 0.00 0.00 82 1008.8
20260504000704 13 212 0.0 4.8 0.00 0.00 0.00 82 1008.9
20260504000204 14 212 0.0 4.8 0.00 0.00 0.00 81 1008.9
20260503235709 14 212 1.6 4.8 0.00 0.00 0.00 81 1008.8
20260503235204 14 240 1.6 8.0 0.00 0.00 0.00 81 1008.8
20260503234704 14 240 1.6 8.0 0.00 0.00 0.00 81 1008.9
20260503234206 14 240 0.0 8.0 0.00 0.00 0.00 81 1008.9
20260503233704 14 240 3.2 8.0 0.00 0.00 0.00 81 1008.9
20260503233204 14 214 0.0 8.0 0.00 0.00 0.00 81 1008.8
20260503232205 14 199 0.0 3.2 0.00 0.00 0.00 81 1008.8
20260503231704 14 173 0.0 4.8 0.00 0.00 0.00 81 1008.7
20260503231204 14 173 1.6 4.8 0.00 0.00 0.00 81 1008.8
20260503230705 14 173 0.0 4.8 0.00 0.00 0.00 81 1008.8
20260503230203 14 173 1.6 3.2 0.00 0.00 0.00 81 1008.8
20260503225707 14 172 0.0 4.8 0.00 0.00 0.00 80 1008.7
20260503225204 14 172 0.0 6.4 0.00 0.00 0.00 80 1008.7
20260503224207 14 173 1.6 6.4 0.00 0.00 0.00 80 1008.6
20260503223204 15 189 0.0 4.8 0.00 0.00 0.00 80 1008.6
20260503222204 15 186 3.2 6.4 0.00 0.00 0.00 80 1008.4
20260503221704 15 195 1.6 6.4 0.00 0.00 0.00 80 1008.5
20260503221204 15 195 0.0 6.4 0.00 0.00 0.00 79 1008.4
20260503220705 15 195 1.6 4.8 0.00 0.00 0.00 79 1008.5
20260503220204 15 193 1.6 4.8 0.00 0.00 0.00 79 1008.4
20260503215705 15 193 1.6 4.8 0.00 0.00 0.00 78 1008.4